EW4427 Weather Reports


time (UTC)temp
F
wind
direction
speed
knots
gust
knots
rain 1hr
in
rain 24hr
in
rain mn
in
humidity
%
barometer
mb
20260902232544 86 0 0.0 0.0 0.00 0.00 0.00 78 1012.1
20260902232043 87 0 0.0 0.0 0.00 0.00 0.00 78 1012.2
20260902231610 87 0 0.0 0.0 0.00 0.00 0.00 78 1012.2
20260902231047 87 0 0.0 0.0 0.00 0.00 0.00 77 1012.1
20260902230543 87 0 0.0 0.0 0.00 0.00 0.00 77 1012.1
20260902230059 87 0 0.0 0.0 0.00 0.00 0.00 76 1012.2
20260902225547 87 0 0.0 0.0 0.00 0.00 0.00 76 1012.2
20260902225043 87 0 0.0 0.0 0.00 0.00 0.00 75 1012.2
20260902224605 87 0 0.0 0.0 0.00 0.00 0.00 75 1012.3
20260902224042 88 0 0.0 0.0 0.00 0.00 0.00 74 1012.3
20260902223542 88 0 0.0 0.0 0.00 0.00 0.00 74 1012.2
20260902223101 88 0 0.0 0.0 0.00 0.00 0.00 73 1012.2
20260902222545 88 0 0.0 0.0 0.00 0.00 0.00 72 1012.3
20260902222043 88 0 0.0 0.0 0.00 0.00 0.00 72 1012.5
20260902221600 88 0 0.0 0.0 0.00 0.00 0.00 72 1012.6
20260902221043 88 0 0.0 0.0 0.00 0.00 0.00 72 1012.4
20260902220544 88 0 0.0 0.0 0.00 0.00 0.00 72 1012.3
20260902220100 88 0 0.0 0.0 0.00 0.00 0.00 71 1012.3
20260902215545 89 0 0.0 0.0 0.00 0.00 0.00 70 1012.3
20260902215042 89 0 0.0 0.0 0.00 0.00 0.00 71 1012.4
20260902214556 89 0 0.0 0.0 0.00 0.00 0.00 70 1012.3
20260902214041 89 0 0.0 0.0 0.00 0.00 0.00 70 1012.4
20260902213543 89 0 0.0 0.0 0.00 0.00 0.00 69 1012.4
20260902213105 89 0 0.0 0.0 0.00 0.00 0.00 69 1012.6
20260902212544 90 0 0.0 0.0 0.00 0.00 0.00 68 1012.5
20260902212048 90 0 0.0 0.0 0.00 0.00 0.00 67 1012.5
20260902211600 90 0 0.0 0.0 0.00 0.00 0.00 66 1012.6
20260902211042 90 0 0.0 0.0 0.00 0.00 0.00 66 1012.5
20260902210542 91 0 0.0 0.0 0.00 0.00 0.00 66 1012.6
20260902205541 91 0 0.0 0.0 0.00 0.00 0.00 65 1012.7
20260902205044 91 0 0.0 0.0 0.00 0.00 0.00 64 1012.7
20260902204602 92 0 0.0 0.0 0.00 0.00 0.00 64 1012.5
20260902204044 92 0 0.0 0.0 0.00 0.00 0.00 64 1012.5
20260902203544 91 0 0.0 0.0 0.00 0.00 0.00 65 1012.5
20260902203122 91 0 0.0 0.0 0.00 0.00 0.00 65 1012.5
20260902202543 91 0 0.0 0.0 0.00 0.00 0.00 65 1012.4
20260902202043 91 0 0.0 0.0 0.00 0.00 0.00 64 1012.5
20260902201554 91 0 0.0 0.0 0.00 0.00 0.00 64 1012.5
20260902201042 90 0 0.0 0.0 0.00 0.00 0.00 65 1012.5
20260902200543 90 0 0.0 0.0 0.00 0.00 0.00 67 1012.7
20260902200100 90 0 0.0 0.0 0.00 0.00 0.00 64 1012.7
20260902195545 90 0 0.0 0.0 0.00 0.00 0.00 65 1012.8
20260902195044 90 0 0.0 0.0 0.00 0.00 0.00 68 1012.7
20260902194559 90 0 0.0 0.0 0.00 0.00 0.00 67 1012.7
20260902194044 91 0 0.0 6.1 0.00 0.00 0.00 66 1012.7
20260902193545 91 0 0.0 6.1 0.00 0.00 0.00 66 1012.7
20260902193102 92 0 0.0 0.0 0.00 0.00 0.00 66 1012.8
20260902192541 92 0 0.0 0.0 0.00 0.00 0.00 65 1013.0
20260902192045 91 0 0.0 0.0 0.00 0.00 0.00 67 1012.9
20260902191559 91 0 0.0 0.0 0.00 0.00 0.00 65 1012.8
20260902191041 91 0 0.0 0.0 0.00 0.00 0.00 66 1013.0
20260902190541 91 0 0.0 0.0 0.00 0.00 0.00 67 1013.0
20260902190100 90 0 0.0 0.0 0.00 0.00 0.00 69 1013.2
20260902185619 90 0 0.0 0.0 0.00 0.00 0.00 68 1013.1
20260902185046 90 0 0.0 0.0 0.00 0.00 0.00 69 1013.1
20260902184603 89 0 0.0 0.0 0.00 0.00 0.00 71 1013.1
20260902184046 88 0 0.0 0.0 0.00 0.00 0.00 71 1013.1
20260902183547 88 0 0.0 0.0 0.00 0.00 0.00 71 1013.1
20260902183120 87 0 0.0 0.0 0.00 0.00 0.00 73 1013.2
20260902182547 87 0 0.0 0.0 0.00 0.00 0.00 74 1013.1
20260902182048 87 0 0.0 0.0 0.00 0.00 0.00 73 1013.1
20260902181558 87 0 0.0 0.0 0.00 0.00 0.00 75 1013.2
20260902181045 86 0 0.0 0.0 0.00 0.00 0.00 73 1013.0
20260902180546 86 0 0.0 0.0 0.00 0.00 0.00 74 1013.2
20260902180055 86 0 0.0 0.0 0.00 0.00 0.00 75 1013.3
20260902175546 85 0 0.0 0.0 0.00 0.01 0.00 75 1013.5
20260902175046 85 0 0.0 0.0 0.00 0.01 0.00 77 1013.6
20260902174608 85 0 0.0 0.0 0.00 0.01 0.00 75 1013.5
20260902174047 84 0 0.0 0.0 0.00 0.01 0.00 77 1013.7
20260902173546 84 0 0.0 0.0 0.00 0.01 0.00 76 1013.6
20260902173059 84 0 0.0 0.0 0.00 0.01 0.00 78 1013.6
20260902172546 84 0 0.0 0.0 0.00 0.01 0.00 78 1013.6
20260902172048 84 0 0.0 0.0 0.00 0.01 0.00 79 1013.6
20260902171605 84 0 0.0 0.0 0.00 0.01 0.00 79 1013.8
20260902171047 83 0 0.0 0.0 0.00 0.01 0.00 79 1013.9
20260902170546 83 0 0.0 0.0 0.00 0.01 0.00 79 1013.8
20260902165547 83 0 0.0 0.0 0.00 0.01 0.00 81 1013.7
20260902165047 82 0 0.0 0.0 0.00 0.01 0.00 82 1013.8
20260902164600 82 0 0.0 0.0 0.00 0.01 0.00 82 1013.9
20260902164046 82 0 0.0 0.0 0.00 0.01 0.00 82 1013.8
20260902163546 82 0 0.0 0.0 0.00 0.01 0.00 84 1013.8
20260902163116 81 0 0.0 0.0 0.00 0.01 0.00 84 1013.6
20260902162544 81 0 0.0 0.0 0.00 0.01 0.00 84 1013.6
20260902162044 81 0 0.0 0.0 0.00 0.01 0.00 84 1013.7
20260902161605 80 0 0.0 0.0 0.00 0.01 0.00 85 1013.5
20260902161043 80 0 0.0 0.0 0.00 0.01 0.00 85 1013.5
20260902160542 79 0 0.0 0.0 0.00 0.01 0.00 85 1013.5
20260902155543 79 0 0.0 0.0 0.00 0.01 0.00 85 1013.7
20260902155043 78 0 0.0 0.0 0.00 0.01 0.00 84 1013.8
20260902154603 78 0 0.0 0.0 0.00 0.01 0.00 84 1013.8
20260902154043 78 0 0.0 0.0 0.00 0.01 0.00 84 1013.8
20260902153544 78 0 0.0 0.0 0.00 0.01 0.00 83 1013.9
20260902153112 78 0 0.0 0.0 0.00 0.01 0.00 82 1013.9
20260902152543 77 0 0.0 0.0 0.00 0.01 0.00 82 1013.9
20260902152045 77 0 0.0 0.0 0.00 0.01 0.00 83 1014.0
20260902151603 77 0 0.0 0.0 0.00 0.01 0.00 84 1014.0
20260902151048 77 0 0.0 0.0 0.00 0.01 0.00 86 1014.1
20260902150545 77 0 0.0 0.0 0.00 0.01 0.00 87 1014.1
20260902150059 77 0 0.0 0.0 0.00 0.01 0.00 87 1014.0
20260902145546 76 0 0.0 0.0 0.00 0.01 0.00 88 1014.1
20260902145046 76 0 0.0 0.0 0.00 0.01 0.00 88 1014.2
20260902144555 76 0 0.0 0.0 0.00 0.01 0.00 89 1014.2
20260902144046 76 0 0.0 0.0 0.00 0.01 0.00 90 1014.2
20260902143550 76 0 0.0 0.0 0.00 0.01 0.00 91 1014.4
20260902143058 76 0 0.0 0.0 0.00 0.01 0.00 91 1014.2
20260902142549 75 0 0.0 0.0 0.00 0.01 0.00 91 1014.3
20260902142047 75 0 0.0 0.0 0.00 0.01 0.00 92 1014.5
20260902141603 75 0 0.0 0.0 0.00 0.01 0.00 92 1014.4
20260902141046 75 0 0.0 0.0 0.00 0.01 0.00 93 1014.4
20260902140547 75 0 0.0 0.0 0.00 0.01 0.00 93 1014.5
20260902135546 75 0 0.0 0.0 0.00 0.01 0.00 94 1014.6
20260902135044 74 0 0.0 0.0 0.00 0.01 0.00 94 1014.5
20260902134600 74 0 0.0 0.0 0.00 0.01 0.00 94 1014.4
20260902134044 74 0 0.0 0.0 0.00 0.01 0.00 95 1014.5
20260902133546 74 0 0.0 0.0 0.00 0.01 0.00 95 1014.5
20260902133108 74 0 0.0 0.0 0.00 0.01 0.00 95 1014.6
20260902132546 73 0 0.0 0.0 0.00 0.01 0.00 95 1014.6
20260902132044 73 0 0.0 0.0 0.00 0.01 0.00 95 1014.8
20260902131603 73 0 0.0 0.0 0.00 0.01 0.00 95 1015.0
20260902131047 73 0 0.0 0.0 0.00 0.01 0.00 95 1015.0
20260902130544 73 0 0.0 0.0 0.00 0.01 0.00 95 1015.1
20260902125543 73 0 0.0 0.0 0.00 0.01 0.00 95 1015.2
20260902125046 72 0 0.0 0.0 0.00 0.01 0.00 94 1015.0
20260902124602 72 0 0.0 0.0 0.00 0.01 0.00 94 1015.1
20260902124047 72 0 0.0 0.0 0.00 0.01 0.00 94 1015.3
20260902123550 72 0 0.0 0.0 0.00 0.01 0.00 94 1015.3
20260902123124 72 0 0.0 0.0 0.00 0.01 0.00 94 1015.4
20260902122546 72 0 0.0 0.0 0.00 0.01 0.00 94 1015.2
20260902122045 72 0 0.0 0.0 0.00 0.01 0.00 94 1015.4
20260902121602 72 0 0.0 0.0 0.00 0.01 0.00 94 1015.2
20260902121044 72 0 0.0 0.0 0.00 0.01 0.00 94 1014.9
20260902120548 72 0 0.0 0.0 0.00 0.01 0.00 94 1015.1
20260902120108 72 0 0.0 0.0 0.00 0.01 0.00 94 1014.8
20260902115547 72 0 0.0 0.0 0.00 0.01 0.00 94 1014.7
20260902115048 72 0 0.0 0.0 0.00 0.01 0.00 94 1014.6
20260902114558 72 0 0.0 0.0 0.00 0.01 0.00 94 1014.5
20260902114047 73 0 0.0 0.0 0.00 0.01 0.00 94 1014.3
20260902113546 73 0 0.0 0.0 0.00 0.01 0.00 94 1014.5
20260902113054 73 0 0.0 0.0 0.00 0.01 0.00 94 1014.0
20260902112544 73 0 0.0 0.0 0.00 0.01 0.00 94 1013.9
20260902112044 72 0 0.0 0.0 0.00 0.01 0.00 94 1013.9
20260902111606 72 0 0.0 0.0 0.00 0.01 0.00 94 1013.8
20260902111044 72 0 0.0 0.0 0.00 0.01 0.00 94 1013.9
20260902110544 72 0 0.0 0.0 0.00 0.01 0.00 94 1013.9
20260902110058 73 0 0.0 0.0 0.00 0.01 0.00 94 1013.9
20260902105546 73 0 0.0 0.0 0.00 0.01 0.00 94 1013.9
20260902105049 73 0 0.0 0.0 0.00 0.01 0.00 94 1014.0
20260902104555 73 0 0.0 0.0 0.00 0.01 0.00 94 1014.1
20260902104044 73 0 0.0 0.0 0.00 0.01 0.00 94 1014.1
20260902103544 73 0 0.0 0.0 0.00 0.01 0.00 94 1014.1
20260902103053 73 0 0.0 0.0 0.00 0.01 0.00 94 1014.1
20260902102544 73 0 0.0 0.0 0.00 0.01 0.00 94 1014.0
20260902102044 73 0 0.0 0.0 0.00 0.01 0.00 94 1014.1
20260902101557 73 0 0.0 0.0 0.00 0.01 0.00 94 1014.1
20260902101043 73 0 0.0 0.0 0.00 0.01 0.00 94 1014.2
20260902100547 74 0 0.0 0.0 0.00 0.01 0.00 94 1014.1
20260902100106 74 0 0.0 0.0 0.00 0.01 0.00 94 1013.9
20260902095545 74 0 0.0 0.0 0.00 0.01 0.00 94 1014.4
20260902095046 74 0 0.0 0.0 0.00 0.01 0.00 95 1013.9
20260902094600 74 0 0.0 0.0 0.00 0.01 0.00 95 1013.8
20260902094044 74 0 0.0 0.0 0.00 0.01 0.00 95 1013.9
20260902093547 74 0 0.0 0.0 0.00 0.01 0.00 94 1014.0
20260902093059 74 0 0.0 0.0 0.00 0.01 0.00 94 1013.9
20260902092546 74 0 0.0 0.0 0.00 0.01 0.00 94 1013.9
20260902092046 74 0 0.0 0.0 0.00 0.01 0.00 94 1014.0
20260902091610 73 0 0.0 0.0 0.00 0.01 0.00 94 1013.9
20260902091046 73 0 0.0 0.0 0.00 0.01 0.00 93 1013.9
20260902090546 73 0 0.0 0.0 0.00 0.01 0.00 93 1013.9
20260902085544 74 0 0.0 0.0 0.00 0.01 0.00 93 1013.9
20260902085044 74 0 0.0 0.0 0.00 0.01 0.00 93 1013.9
20260902084604 74 0 0.0 0.0 0.00 0.01 0.00 93 1013.9
20260902084047 74 0 0.0 0.0 0.00 0.01 0.00 93 1013.8
20260902083543 74 0 0.0 0.0 0.00 0.01 0.00 93 1013.9
20260902083124 74 0 0.0 0.0 0.00 0.01 0.00 93 1013.9
20260902082546 74 0 0.0 0.0 0.00 0.01 0.00 93 1013.8
20260902082046 74 0 0.0 0.0 0.00 0.01 0.00 93 1013.7
20260902081557 74 0 0.0 0.0 0.00 0.01 0.00 93 1013.6
20260902081048 75 0 0.0 0.0 0.00 0.01 0.00 93 1013.5
20260902080546 75 0 0.0 0.0 0.00 0.01 0.00 93 1013.6
20260902080059 75 0 0.0 0.0 0.00 0.01 0.00 93 1013.5
20260902075546 75 0 0.0 0.0 0.00 0.01 0.00 93 1013.5
20260902075047 75 0 0.0 0.0 0.00 0.01 0.00 93 1013.7
20260902074612 75 0 0.0 0.0 0.00 0.01 0.00 93 1013.6
20260902074046 75 0 0.0 0.0 0.00 0.01 0.00 93 1013.7
20260902073545 75 0 0.0 0.0 0.00 0.01 0.00 93 1013.6
20260902073102 75 0 0.0 0.0 0.00 0.01 0.00 93 1013.6
20260902072546 75 0 0.0 0.0 0.00 0.01 0.00 93 1013.6
20260902072046 75 0 0.0 0.0 0.00 0.01 0.00 93 1013.5
20260902071607 75 0 0.0 0.0 0.00 0.01 0.00 93 1013.6
20260902071048 75 0 0.0 0.0 0.00 0.01 0.00 93 1013.5
20260902070545 76 0 0.0 0.0 0.00 0.01 0.00 93 1013.6
20260902070104 76 0 0.0 0.0 0.00 0.01 0.00 93 1013.8
20260902065546 76 0 0.0 0.0 0.00 0.01 0.00 93 1013.7
20260902065047 76 0 0.0 0.0 0.00 0.01 0.00 93 1013.7
20260902064600 76 0 0.0 0.0 0.00 0.01 0.00 93 1013.7
20260902064045 76 0 0.0 0.0 0.00 0.01 0.00 93 1013.7
20260902063545 76 0 0.0 0.0 0.00 0.01 0.00 93 1013.8
20260902063100 76 0 0.0 0.0 0.00 0.01 0.00 94 1013.9
20260902062546 76 0 0.0 0.0 0.00 0.01 0.00 94 1013.8
20260902062044 76 0 0.0 0.0 0.00 0.01 0.00 94 1013.9
20260902061602 76 0 0.0 0.0 0.00 0.01 0.00 94 1013.9
20260902061044 76 0 0.0 0.0 0.00 0.01 0.00 94 1014.0
20260902060543 76 0 0.0 0.0 0.00 0.01 0.00 94 1013.9
20260902060109 76 0 0.0 0.0 0.00 0.01 0.00 94 1014.0
20260902055546 76 0 0.0 0.0 0.00 0.01 0.00 94 1014.1
20260902055042 76 0 0.0 0.0 0.00 0.01 0.00 94 1014.0
20260902054557 76 0 0.0 0.0 0.00 0.01 0.00 94 1014.0
20260902054043 77 0 0.0 0.0 0.00 0.01 0.00 94 1013.9
20260902053542 77 0 0.0 0.0 0.00 0.01 0.00 94 1013.8
20260902053057 77 0 0.0 0.0 0.00 0.01 0.00 94 1013.8
20260902052542 77 0 0.0 0.0 0.00 0.01 0.00 94 1013.8
20260902052042 77 0 0.0 0.0 0.00 0.01 0.00 94 1013.8
20260902051601 77 0 0.0 0.0 0.00 0.01 0.00 94 1013.7
20260902051043 77 0 0.0 0.0 0.00 0.01 0.00 94 1013.7
20260902050545 77 0 0.0 0.0 0.00 0.01 0.00 94 1013.6
20260902050105 77 0 0.0 0.0 0.00 0.01 0.00 94 1013.5
20260902045542 77 0 0.0 0.0 0.00 0.01 0.01 94 1013.6
20260902045042 76 0 0.0 0.0 0.00 0.01 0.01 93 1013.6
20260902044603 76 0 0.0 0.0 0.00 0.01 0.01 92 1013.7
20260902044042 77 0 0.0 0.0 0.00 0.01 0.01 92 1013.7
20260902043541 77 0 0.0 0.0 0.00 0.01 0.01 92 1013.8
20260902043104 77 0 0.0 0.0 0.00 0.01 0.01 92 1013.7
20260902042545 77 0 0.0 0.0 0.00 0.01 0.01 92 1013.7
20260902042044 77 0 0.0 0.0 0.00 0.01 0.01 92 1013.6
20260902041600 77 0 0.0 0.0 0.00 0.01 0.01 93 1013.7
20260902041042 77 0 0.0 0.0 0.00 0.01 0.01 93 1013.6
20260902040542 77 0 0.0 0.0 0.00 0.01 0.01 93 1013.6
20260902035545 77 0 0.0 0.0 0.00 0.01 0.01 92 1013.5
20260902035046 77 0 0.0 0.0 0.00 0.01 0.01 92 1013.7
20260902034602 78 0 0.0 0.0 0.00 0.01 0.01 92 1013.7
20260902034044 78 0 0.0 0.0 0.00 0.01 0.01 92 1013.6
20260902033542 78 0 0.0 0.0 0.00 0.01 0.01 92 1013.7
20260902033055 78 0 0.0 0.0 0.00 0.01 0.01 91 1013.7
20260902032545 78 0 0.0 0.0 0.00 0.01 0.01 90 1013.8
20260902032042 78 0 0.0 0.0 0.00 0.01 0.01 90 1013.8
20260902031612 78 0 0.0 0.0 0.00 0.01 0.01 90 1013.8
20260902031046 78 0 0.0 0.0 0.00 0.01 0.01 90 1013.9
20260902030549 78 0 0.0 0.0 0.00 0.01 0.01 89 1013.8
20260902025545 78 0 0.0 0.0 0.00 0.01 0.01 89 1013.7
20260902025045 78 0 0.0 0.0 0.00 0.01 0.01 89 1013.8
20260902024605 78 0 0.0 0.0 0.00 0.01 0.01 89 1013.8
20260902024045 78 0 0.0 0.0 0.00 0.01 0.01 89 1013.8
20260902023545 78 0 0.0 0.0 0.00 0.01 0.01 89 1014.0
20260902023056 78 0 0.0 0.0 0.00 0.01 0.01 89 1013.9
20260902022550 78 0 0.0 0.0 0.00 0.01 0.01 89 1014.0
20260902022046 79 0 0.0 0.0 0.00 0.01 0.01 89 1014.1
20260902021611 79 0 0.0 0.0 0.00 0.01 0.01 88 1014.1
20260902021048 79 0 0.0 0.0 0.00 0.01 0.01 88 1014.1
20260902020545 79 0 0.0 0.0 0.00 0.01 0.01 88 1014.1
20260902020117 79 0 0.0 0.0 0.00 0.01 0.01 88 1014.1
20260902015544 79 0 0.0 0.0 0.00 0.01 0.01 87 1014.0
20260902015047 79 0 0.0 0.0 0.00 0.01 0.01 87 1013.9
20260902014558 79 0 0.0 0.0 0.00 0.01 0.01 87 1013.9
20260902014045 79 0 0.0 0.0 0.00 0.01 0.01 87 1013.8
20260902013546 79 0 0.0 0.0 0.00 0.01 0.01 87 1013.7
20260902013058 80 0 0.0 0.0 0.00 0.01 0.01 87 1013.7
20260902012547 80 0 0.0 0.0 0.00 0.01 0.01 87 1013.7
20260902012045 80 0 0.0 0.0 0.00 0.01 0.01 86 1013.7
20260902011603 80 0 0.0 0.0 0.00 0.01 0.01 86 1013.7
20260902011046 80 0 0.0 0.0 0.00 0.01 0.01 86 1013.7
20260902010545 80 0 0.0 0.0 0.00 0.01 0.01 86 1013.5
20260902010100 81 0 0.0 0.0 0.00 0.01 0.01 86 1013.4
20260902005546 81 0 0.0 0.0 0.00 0.01 0.01 86 1013.4
20260902005046 81 0 0.0 0.0 0.00 0.01 0.01 86 1013.3
20260902004559 81 0 0.0 0.0 0.00 0.01 0.01 86 1013.2
20260902004046 81 0 0.0 0.0 0.00 0.01 0.01 86 1013.2
20260902003546 81 0 0.0 0.0 0.00 0.01 0.01 86 1013.2
20260902003111 81 0 0.0 0.0 0.00 0.01 0.01 86 1013.3
20260902002545 81 0 0.0 0.0 0.00 0.01 0.01 86 1013.1
20260902002048 82 0 0.0 0.0 0.00 0.01 0.01 85 1013.0
20260902001558 82 0 0.0 0.0 0.00 0.01 0.01 85 1013.0
20260902001045 82 0 0.0 0.0 0.00 0.01 0.01 84 1013.0
20260902000550 82 0 0.0 0.0 0.00 0.01 0.01 84 1013.0
20260901235546 82 0 0.0 0.0 0.00 0.01 0.01 84 1013.0
20260901235047 82 0 0.0 0.0 0.00 0.01 0.01 84 1013.0
20260901234559 82 0 0.0 0.0 0.00 0.01 0.01 84 1013.0
20260901234047 82 0 0.0 0.0 0.00 0.01 0.01 84 1013.0
20260901233546 82 0 0.0 0.0 0.00 0.01 0.01 84 1012.9
20260901233101 82 0 0.0 0.0 0.00 0.01 0.01 84 1012.8